Theta_e
313 312 309 307 308 307 307 308 308 308 308 309 309 309 309 310 310 310 311 311 311 312 312 312 312 311 311 310 310 310 310 310 310 310 310 311 312 313 315 316 313 311 311 311 311 311 312 313 313 314 316 318 317 318 318 318 318 318 328 329 321 324 321 316 320 318 320 320 315 315 316 316 316 316 316 316 316 316 316 315 316 317 318 318 317 318 315 314
313 312 308 307 308 307 308 308 308 309 308 309 309 310 310 310 310 310 311 311 311 311 312 311 311 310 310 310 310 310 310 310 310 310 311 311 312 313 315 314 312 311 311 311 311 312 313 313 314 314 316 317 317 318 317 318 317 319 329 328 324 330 320 313 316 314 316 318 315 315 316 316 316 315 315 317 315 315 317 316 316 317 317 316 316 316 316 314
312 311 308 307 308 307 308 308 309 309 309 310 309 310 310 310 310 310 311 311 311 311 311 311 310 310 310 310 310 310 310 310 310 310 311 311 312 314 315 313 312 311 311 311 311 312 314 314 314 314 315 316 317 317 317 317 317 317 325 328 327 327 318 313 315 314 316 316 314 315 315 315 315 315 316 316 314 314 316 316 316 317 315 315 316 316 316 315
311 310 309 308 308 307 308 308 308 309 309 309 309 310 309 310 310 310 311 310 311 311 310 310 310 310 310 310 310 310 310 309 310 311 311 311 313 314 314 312 311 311 312 311 312 313 314 314 314 314 314 315 315 316 317 317 316 315 323 329 322 316 316 316 315 315 316 315 316 315 315 315 314 315 315 314 315 314 314 316 316 316 315 315 315 316 317 317
311 310 309 308 308 307 308 308 308 309 309 309 309 310 310 310 310 310 310 310 310 310 310 310 310 310 310 310 310 310 310 310 312 311 310 312 314 314 313 312 311 312 312 311 312 314 314 314 313 313 314 314 314 315 316 316 316 315 317 319 315 313 316 316 314 316 315 315 316 314 315 316 315 315 314 314 317 316 315 315 316 315 315 315 315 315 316 317
312 310 309 309 308 307 307 308 308 309 309 309 310 310 310 310 310 310 310 310 310 310 310 310 310 310 310 310 310 310 310 312 315 313 310 312 313 312 312 312 312 312 311 312 312 313 314 314 313 313 313 313 314 314 315 315 315 318 315 313 314 314 316 315 315 316 315 315 315 313 315 316 315 315 314 314 315 316 315 316 315 315 315 315 315 315 315 316
313 310 309 309 308 307 307 308 308 309 309 309 310 310 310 310 310 310 310 310 310 310 310 310 310 310 310 310 310 309 310 313 315 314 311 312 312 312 312 312 312 312 312 312 312 313 314 313 313 313 313 314 313 313 315 314 314 319 317 313 314 315 315 315 315 316 315 315 315 315 315 315 315 316 315 314 315 315 316 317 316 315 316 315 315 315 315 315
314 311 309 309 308 308 307 308 308 309 309 309 310 310 310 310 310 310 310 311 310 311 310 310 310 310 310 310 309 309 310 312 314 314 313 312 312 312 312 312 312 312 312 312 312 312 313 314 313 313 314 313 314 313 314 314 313 318 317 313 314 314 315 314 314 315 315 315 315 315 315 315 315 315 315 315 316 316 317 317 316 316 316 316 316 315 315 315
315 312 310 309 309 308 307 308 308 309 309 309 310 309 310 310 310 310 310 311 311 310 310 310 310 309 310 310 310 309 309 312 312 313 313 312 312 312 312 312 312 312 312 313 313 313 313 314 313 314 314 312 314 313 313 314 313 315 316 314 314 314 314 314 314 315 315 315 315 315 315 315 315 315 316 316 316 316 316 316 316 316 316 317 316 316 315 315
315 313 311 310 309 308 307 308 308 308 309 309 310 310 310 310 310 311 310 311 311 310 310 310 309 309 309 309 310 311 312 313 311 312 314 313 312 313 312 312 312 312 312 313 313 314 314 314 314 314 314 314 314 313 313 314 315 314 314 314 314 313 314 314 314 314 315 315 315 316 316 315 314 315 317 317 316 316 316 316 316 316 316 316 316 317 316 315
315 314 312 310 309 308 307 307 308 308 309 309 309 310 310 310 310 310 311 311 310 310 310 310 309 308 308 309 310 312 315 315 313 313 313 312 312 312 312 312 312 312 312 313 313 314 314 315 315 314 315 314 314 315 314 314 315 315 314 315 313 313 314 314 314 314 315 315 314 315 314 313 314 315 317 316 315 316 316 316 316 316 316 316 316 316 316 316
314 314 312 310 309 308 308 308 308 308 308 309 309 310 310 310 310 310 311 310 311 310 310 310 309 307 307 308 309 312 316 316 315 314 312 312 312 312 312 312 312 312 312 312 313 314 314 315 315 315 315 314 315 315 315 315 315 314 316 318 316 316 317 314 313 314 314 315 315 314 313 315 316 316 317 315 315 316 315 316 316 316 316 316 316 316 316 316
314 313 312 311 310 309 308 308 308 308 308 309 309 310 310 310 310 310 310 310 311 310 309 310 308 307 307 308 309 311 315 315 315 314 312 312 312 312 312 312 312 312 312 312 313 313 314 315 315 315 314 314 315 314 315 315 314 315 314 318 319 319 319 314 312 314 314 315 315 313 313 318 319 315 315 315 314 315 315 315 315 316 316 316 316 316 316 316
315 314 313 312 310 309 309 308 308 308 308 308 309 309 309 310 310 310 310 310 310 310 309 309 308 307 307 309 311 310 312 314 313 313 312 312 312 312 312 312 312 312 312 313 313 313 313 314 314 315 315 315 315 314 317 314 315 317 313 319 323 317 319 317 312 314 315 315 315 314 314 320 322 315 314 315 315 316 315 315 315 316 316 316 316 316 316 316
315 315 313 312 311 309 309 308 308 308 308 308 308 309 309 309 310 310 310 310 310 310 309 309 307 307 307 309 311 311 311 312 313 313 312 313 312 312 312 313 313 313 314 314 313 312 313 314 315 316 314 315 315 315 319 318 319 320 315 321 321 315 321 321 313 313 315 315 314 314 316 320 320 314 314 316 315 315 315 316 315 316 315 316 316 316 316 316
315 315 314 313 311 309 309 309 308 307 308 308 308 309 309 309 309 310 310 310 310 309 308 308 307 307 308 308 311 313 311 311 313 312 312 313 312 312 314 314 314 314 314 313 313 312 313 315 315 315 314 315 317 318 322 321 323 324 319 321 321 316 319 320 315 312 313 315 314 313 316 320 318 314 316 316 315 315 315 316 315 315 316 316 316 316 316 316
315 315 314 313 311 309 308 308 308 307 308 308 308 309 308 309 309 309 310 309 308 307 307 307 307 308 309 310 313 314 312 312 312 312 313 312 312 314 314 315 314 313 313 313 313 313 314 315 315 315 314 314 317 320 319 317 319 321 318 319 321 320 317 319 319 313 311 315 316 315 315 320 319 314 315 316 315 316 316 316 316 316 316 316 316 317 317 316
316 315 314 314 312 309 308 308 308 307 308 308 308 308 308 309 308 309 309 308 307 307 308 309 308 309 310 310 313 314 313 312 312 313 312 312 314 314 315 315 314 314 314 314 314 314 314 313 315 318 316 314 316 320 321 320 320 320 319 318 318 318 317 319 320 315 314 316 317 317 316 320 319 313 314 316 315 315 315 316 316 316 316 316 316 316 317 317
317 315 314 313 311 309 308 308 308 308 308 308 308 307 307 307 307 307 306 306 307 308 310 310 308 311 313 310 312 314 313 312 312 312 312 312 314 314 315 315 314 315 314 315 315 314 315 314 315 317 316 316 316 320 326 325 323 323 324 326 324 321 317 317 318 314 313 316 317 318 318 318 319 316 313 314 314 313 314 315 314 315 315 316 316 316 317 317
316 315 314 313 311 310 308 308 308 308 308 308 307 307 307 307 308 309 307 306 309 310 311 311 309 311 313 310 311 314 313 312 312 312 312 313 314 315 315 314 315 315 314 317 317 313 316 318 318 318 316 316 318 320 323 320 320 322 322 326 325 322 318 315 317 314 310 315 318 317 317 317 318 317 312 312 313 310 311 312 313 315 315 315 316 316 317 316
315 314 314 312 311 309 308 307 307 307 308 307 307 307 308 308 309 310 308 307 309 311 311 311 309 311 313 309 312 314 312 313 312 312 313 313 315 315 314 315 315 315 314 315 315 315 318 318 319 322 319 315 317 319 318 315 317 321 322 324 322 320 320 315 316 317 311 313 318 317 316 317 316 316 311 310 311 310 311 311 312 314 315 316 316 316 316 316
314 313 313 312 310 309 308 307 307 307 307 307 307 308 307 308 310 310 308 307 308 311 312 311 310 312 313 310 312 314 312 313 312 313 314 313 315 314 314 315 315 316 314 313 316 318 319 318 319 321 314 312 314 316 317 320 323 326 324 322 321 319 317 316 317 319 314 313 319 320 319 317 315 315 311 309 310 311 312 311 312 314 314 314 315 315 315 315
314 313 312 311 310 309 308 307 307 307 307 307 307 308 307 309 312 310 308 307 307 309 311 311 310 311 313 313 313 314 312 313 312 313 314 314 315 314 313 314 315 317 315 316 319 317 317 319 318 313 309 312 315 315 318 320 323 327 325 320 320 319 318 318 317 317 316 313 317 320 319 316 315 318 317 311 310 312 313 313 313 313 313 314 315 314 315 315
314 313 311 310 309 309 307 307 307 307 307 307 307 308 307 309 312 309 308 309 308 309 310 311 311 311 313 314 314 314 313 312 312 313 313 314 314 313 313 313 314 316 315 317 318 317 319 317 312 310 313 318 316 315 320 319 316 322 331 330 323 321 320 319 318 317 316 314 316 318 317 321 324 328 329 319 310 311 313 315 315 315 314 315 315 315 315 315
313 312 310 310 309 308 307 306 306 306 307 307 308 309 307 309 311 309 310 311 311 311 309 310 311 311 312 314 314 313 313 312 313 312 312 313 313 313 313 312 313 316 316 316 316 317 318 313 311 314 318 322 319 317 322 323 317 315 325 328 322 324 324 320 321 320 318 316 316 314 314 325 331 329 329 323 314 313 312 310 313 316 317 315 316 316 316 316
312 310 309 309 308 308 307 307 306 306 307 307 309 309 308 309 311 309 312 313 313 311 309 309 311 311 312 313 314 313 313 313 313 312 312 313 313 313 313 312 312 314 314 314 315 317 316 312 314 320 323 323 321 319 319 322 321 313 316 320 322 329 326 321 320 317 319 317 313 314 315 319 322 319 320 319 315 315 313 309 310 314 317 317 316 316 316 316
310 309 309 308 308 308 307 307 307 307 307 309 311 310 308 310 311 310 313 314 314 312 309 309 310 311 312 313 313 313 315 316 314 312 312 312 313 312 314 313 312 312 312 313 316 315 315 316 317 323 329 326 321 318 316 321 322 313 316 321 326 329 326 326 325 319 320 317 317 323 320 317 318 316 318 317 315 318 319 318 313 310 314 315 313 314 315 315
310 309 308 308 309 309 308 308 307 307 308 310 312 310 309 310 310 311 314 313 312 311 309 308 309 311 313 313 313 313 314 315 314 314 312 312 313 312 313 314 313 315 311 312 319 315 314 320 320 323 330 324 319 319 318 325 325 315 317 323 326 328 329 334 333 326 322 316 320 326 317 315 322 322 322 317 316 319 321 324 318 310 313 314 312 313 314 315
312 310 308 308 309 309 309 310 308 307 309 311 311 310 310 310 309 311 314 311 310 311 309 309 310 311 312 312 312 312 312 314 314 314 312 313 314 312 314 312 311 315 311 312 322 318 312 316 317 321 325 319 318 318 318 329 327 315 315 321 323 326 329 331 329 324 319 314 321 325 315 313 321 326 326 317 315 321 322 324 317 308 312 313 313 314 315 316
314 312 309 309 309 309 311 310 307 307 310 310 310 310 310 310 310 310 309 310 312 311 308 308 310 311 312 311 311 311 313 313 313 313 312 313 314 312 313 312 310 318 319 317 323 319 312 312 313 315 317 315 316 315 314 320 317 312 321 326 323 326 328 330 331 322 314 318 326 325 316 312 316 326 329 319 318 321 320 325 319 310 312 314 315 315 315 317
314 312 310 309 309 309 311 310 307 308 309 310 310 309 310 312 313 310 307 311 316 312 308 309 311 311 311 311 312 312 313 313 312 312 313 313 314 312 312 313 313 318 321 320 322 318 314 314 313 312 312 312 315 316 313 315 313 315 328 328 319 324 325 327 330 321 314 322 326 322 317 313 314 324 328 321 321 320 317 322 321 313 313 315 316 317 317 318
315 312 310 309 308 309 311 311 308 308 309 310 309 309 311 313 312 311 310 312 315 313 311 311 311 312 311 312 313 314 315 315 311 312 315 316 315 314 314 317 318 316 315 318 321 316 316 318 314 311 312 313 319 321 317 320 321 319 323 321 314 319 320 322 328 322 319 321 318 318 319 315 315 321 322 322 323 320 314 314 315 313 315 318 318 318 318 319
315 314 311 309 309 309 311 312 309 308 309 309 308 310 315 314 310 311 313 312 313 313 312 312 312 312 311 312 314 314 315 315 312 311 314 315 316 315 316 318 318 318 318 319 320 315 317 320 315 313 315 313 317 321 318 321 323 317 316 318 317 318 316 319 324 319 319 321 315 314 317 318 320 319 318 320 317 316 313 311 313 315 317 319 318 318 318 318
316 316 314 313 311 309 311 312 310 308 309 309 308 311 314 312 310 311 312 312 313 313 312 313 312 311 311 311 312 313 313 314 313 312 313 314 315 315 315 313 313 322 324 319 318 317 317 320 319 317 316 315 315 318 321 322 320 317 317 316 317 322 321 320 322 319 319 322 317 313 317 323 324 318 316 315 311 313 314 313 313 314 316 318 317 318 318 317
317 317 317 316 314 312 313 313 310 309 308 308 309 310 311 310 310 311 310 312 316 315 312 312 311 311 312 312 312 312 313 314 313 313 314 314 314 314 315 312 313 321 322 315 315 317 315 317 320 315 312 315 316 313 316 321 318 316 315 313 314 320 322 318 317 319 319 319 318 315 320 326 322 316 314 311 310 312 312 312 314 313 315 315 315 317 316 316
316 316 316 317 316 316 316 314 311 309 308 308 309 310 310 309 312 313 311 314 317 314 312 312 311 312 312 312 313 311 312 316 314 313 314 313 313 313 314 313 312 314 316 316 317 316 314 315 317 314 312 313 314 311 311 314 316 315 314 318 318 316 320 318 313 314 314 314 317 317 319 321 316 315 317 314 313 313 312 312 313 314 315 314 315 316 315 315
314 315 316 316 317 317 317 315 311 309 309 308 308 309 309 307 311 315 314 314 314 312 313 313 312 313 312 312 314 312 312 316 314 313 314 313 313 314 314 314 311 311 313 315 317 317 319 319 314 314 316 312 309 311 310 309 314 318 318 321 316 311 317 321 316 318 317 315 318 317 315 316 314 316 320 316 313 315 317 315 311 313 316 315 315 315 314 315
310 312 314 315 316 317 317 316 312 309 310 309 308 310 312 309 309 313 313 312 312 313 314 315 314 313 313 313 313 312 313 315 314 314 314 313 313 314 314 314 312 310 310 310 312 315 318 318 313 312 316 313 311 314 315 311 311 316 318 315 316 317 320 319 316 319 318 315 320 320 314 313 313 315 317 314 315 318 318 317 315 316 315 315 316 315 315 315
308 309 311 313 313 314 316 316 313 311 310 310 308 309 313 312 309 312 314 311 311 314 315 317 316 313 313 314 313 312 314 314 313 315 315 313 313 313 311 313 313 310 308 309 312 315 314 314 314 312 312 313 313 315 319 318 312 313 313 312 316 321 322 320 317 317 317 315 318 320 317 315 316 317 316 314 319 321 318 319 319 314 312 314 315 314 315 315
308 308 310 310 310 311 314 315 314 313 311 310 309 308 312 315 313 312 314 313 313 314 314 318 318 313 314 314 312 312 313 314 313 314 314 312 313 312 310 311 314 312 309 308 311 315 314 311 312 312 311 313 316 316 317 318 316 315 317 315 316 317 317 320 318 316 319 319 319 318 316 318 320 318 316 315 319 320 318 319 316 310 311 315 314 314 315 315
308 308 310 310 309 310 312 314 312 310 310 311 311 313 314 315 314 313 314 314 316 316 315 318 318 315 316 315 313 313 313 314 314 313 314 312 312 313 312 311 312 312 310 309 311 315 313 312 316 317 315 316 318 315 314 316 317 315 315 316 317 316 316 317 315 315 316 317 319 317 313 316 319 314 315 318 317 314 312 311 311 310 313 315 315 316 316 315
308 308 309 311 311 309 310 311 306 305 309 309 310 312 311 311 313 314 313 314 316 317 316 319 319 316 316 315 314 315 314 315 314 313 314 314 312 314 313 311 311 311 311 311 312 312 312 316 322 320 318 319 316 310 308 312 315 314 315 316 316 315 317 318 318 319 317 314 316 318 315 316 315 312 316 316 312 310 310 309 310 312 313 314 315 316 316 316
309 309 309 311 312 309 308 308 305 305 307 307 307 309 308 309 312 313 314 314 316 318 317 319 318 314 315 317 315 315 314 314 314 314 315 314 313 314 312 310 311 310 311 313 312 310 311 317 319 317 318 321 319 314 310 311 314 314 315 317 317 318 320 323 323 321 320 318 316 316 316 314 312 311 311 310 308 311 312 312 312 313 315 315 315 316 317 317
309 310 310 311 311 309 308 308 307 307 306 305 308 310 308 308 310 312 315 314 315 318 319 320 318 314 316 319 316 315 314 314 314 314 315 316 315 312 311 310 312 311 311 313 313 310 312 317 317 316 317 318 320 320 316 314 315 316 319 318 319 322 321 320 319 315 316 322 320 316 315 314 315 315 312 315 318 315 312 313 314 315 315 315 315 316 316 316
308 309 309 310 311 309 308 308 308 308 307 306 308 309 309 310 308 309 313 312 311 313 316 317 315 314 318 318 314 314 314 315 317 315 314 317 316 312 310 311 312 311 311 312 311 310 315 318 316 315 315 314 316 317 317 317 316 317 322 320 317 319 318 316 317 315 316 319 318 316 314 313 315 316 316 322 325 318 313 315 314 314 315 314 314 314 315 316
307 308 308 308 309 309 309 308 307 307 307 307 308 308 309 311 309 307 309 311 309 310 313 314 312 314 319 317 314 315 314 314 317 316 314 316 318 314 311 311 311 310 311 312 310 313 321 320 313 312 314 313 314 315 318 320 318 317 320 319 315 316 316 315 317 317 315 315 315 315 314 313 314 314 314 319 321 319 317 314 313 314 314 314 314 314 314 315
306 307 307 308 309 309 309 308 308 308 307 307 308 308 308 309 310 309 309 310 310 309 311 312 313 315 319 318 317 317 315 313 316 317 315 315 317 317 312 311 312 311 312 312 309 316 323 318 313 313 314 313 314 317 319 319 317 316 317 317 316 315 315 315 316 316 314 314 315 315 314 314 314 312 313 315 316 316 313 309 311 314 313 313 314 313 314 314
305 305 305 307 309 309 309 309 308 308 308 307 308 308 308 308 310 311 310 309 309 310 312 313 313 314 316 317 318 319 317 314 314 316 316 315 317 317 314 313 312 311 313 312 309 314 320 317 315 315 313 313 314 316 318 317 316 316 316 316 317 315 314 315 315 314 315 314 314 314 314 315 313 311 313 313 312 312 311 310 311 312 312 313 313 313 314 314
304 304 304 305 306 307 308 309 309 308 308 308 308 307 308 308 309 310 310 310 310 310 312 314 314 313 314 314 317 320 319 316 315 317 317 317 318 318 317 318 315 311 312 314 311 311 316 320 320 315 313 314 314 315 316 317 315 315 315 315 316 315 314 314 313 313 314 314 314 314 314 314 312 311 312 311 311 310 310 310 311 311 312 313 313 314 314 314
302 303 303 304 304 304 306 309 309 309 308 308 309 308 308 308 309 309 310 310 311 311 311 313 313 313 314 313 314 318 318 316 316 317 317 318 319 319 319 320 318 313 312 314 313 309 312 321 322 315 314 315 314 314 315 316 315 316 316 315 314 314 313 313 313 313 313 313 313 313 314 313 311 311 311 310 311 311 311 310 311 312 313 313 313 314 314 314
302 302 302 304 304 303 305 307 309 309 309 309 309 309 308 308 309 309 310 310 311 311 311 311 312 312 313 313 313 314 314 314 315 315 315 317 317 317 316 315 316 317 315 314 315 313 313 319 319 316 316 315 314 315 315 314 314 315 316 316 314 313 313 313 313 313 313 314 314 314 313 313 312 312 312 311 310 310 310 310 311 312 313 313 313 313 313 314
301 302 301 303 304 304 305 307 308 310 310 309 308 309 309 308 308 309 310 310 309 310 311 310 311 312 312 312 313 312 312 313 314 314 314 314 314 314 314 312 312 317 317 315 317 317 316 317 318 317 316 315 316 317 316 315 315 315 315 314 313 313 312 312 313 313 313 313 314 314 313 313 312 314 314 313 311 310 310 310 312 313 313 313 314 314 314 314
Wind_Speed
19 20 21 20 20 23 23 22 21 20 20 21 21 21 22 22 21 21 21 20 18 18 17 16 15 14 13 11 10 10 11 11 12 13 13 13 14 13 14 12 8 8 9 8 9 9 9 9 8 9 11 9 4 5 6 5 3 2 2 3 1 2 3 4 6 6 5 5 7 12 14 10 6 8 11 9 10 13 10 8 10 10 9 7 6 8 16 21
20 20 21 20 19 22 23 22 22 21 21 21 20 21 22 21 21 21 20 20 18 18 17 16 15 14 12 11 10 10 11 11 12 14 13 13 14 13 14 13 9 9 10 9 10 10 10 10 9 10 10 7 4 5 6 5 4 2 3 3 2 5 3 2 4 6 4 7 13 13 13 12 10 12 13 8 7 11 8 6 9 11 11 10 8 12 17 20
21 21 21 21 19 21 23 24 23 22 21 21 21 21 21 21 20 20 20 19 19 18 16 16 14 13 12 11 11 11 11 10 11 13 13 13 14 14 13 12 10 10 10 10 11 11 11 10 10 10 8 5 4 6 6 5 5 2 3 3 4 6 4 1 1 4 6 11 17 13 13 10 10 15 13 8 7 7 7 8 9 12 14 13 12 14 17 19
20 20 20 21 20 21 23 25 24 24 22 21 21 21 21 21 20 19 19 19 18 17 16 15 14 13 12 12 11 11 10 7 10 13 13 13 13 14 12 11 10 10 10 11 12 12 10 8 9 9 7 4 4 5 5 5 5 2 4 3 5 5 3 2 3 1 5 16 20 15 11 6 9 14 12 11 8 3 10 16 14 14 17 17 16 16 17 19
19 20 21 21 21 21 22 25 25 24 23 22 22 21 21 21 20 19 18 18 18 17 16 14 13 13 12 13 12 11 8 2 8 14 13 13 12 13 12 10 11 11 11 12 12 12 10 7 8 9 6 2 3 3 4 7 6 3 1 2 3 4 3 0 3 2 7 15 17 15 10 6 10 11 12 14 9 6 14 19 16 15 17 17 18 18 19 19
19 20 22 21 21 22 22 24 25 25 24 23 22 22 21 21 20 19 18 17 17 16 15 14 13 13 13 14 13 13 11 2 5 13 14 14 12 12 12 11 11 11 11 11 12 12 10 8 8 9 6 2 4 4 4 8 7 3 1 1 2 3 4 3 2 3 8 13 13 13 9 9 10 7 10 14 13 9 10 14 15 14 15 16 18 19 20 20
20 20 22 21 21 22 22 23 25 26 25 24 23 22 21 21 20 19 18 17 16 15 14 14 13 13 14 14 13 14 14 5 3 11 15 14 13 13 13 11 12 11 11 11 11 12 11 10 8 8 5 2 4 4 4 8 5 4 2 1 3 3 5 6 5 6 9 12 11 10 9 10 9 5 6 12 16 11 5 7 11 14 16 18 20 20 21 20
19 20 21 21 21 22 23 23 24 25 26 25 23 23 22 21 20 19 18 16 15 14 14 14 13 14 14 14 14 12 14 10 2 7 14 14 13 14 13 12 12 11 11 11 10 12 12 10 8 7 3 1 5 5 6 6 2 3 3 3 3 4 5 6 6 8 9 10 9 9 7 8 8 3 4 11 15 12 9 8 8 11 15 19 21 22 21 21
18 18 20 21 21 22 23 23 23 25 26 26 24 23 22 20 20 19 18 16 15 14 14 14 14 14 14 14 14 9 12 14 4 4 12 15 13 14 14 13 13 12 12 12 10 12 12 9 9 7 2 3 6 6 7 5 1 3 6 6 5 4 5 6 5 6 8 8 8 7 3 3 5 2 7 14 15 15 14 12 10 11 13 16 19 21 22 22
18 17 18 21 22 23 23 23 24 25 25 26 25 23 21 20 19 18 18 16 15 14 14 14 14 14 14 15 13 7 11 15 7 4 11 15 15 15 15 13 13 13 12 12 11 11 11 8 8 8 3 4 7 5 4 5 4 8 11 9 7 5 3 4 4 5 6 5 5 5 1 1 3 1 6 11 10 15 19 16 14 13 13 14 16 19 20 21
18 17 18 21 23 23 23 24 24 25 25 26 25 23 21 20 19 18 17 16 15 14 14 14 14 14 14 15 13 8 10 12 8 7 11 15 16 15 14 13 13 13 13 13 12 11 10 7 7 8 4 4 7 4 4 6 10 15 16 9 5 3 1 2 4 5 5 3 2 4 1 2 1 1 10 12 6 12 19 19 17 16 15 15 16 18 20 21
19 19 18 20 22 23 23 23 24 25 25 25 24 23 21 20 18 17 16 15 14 14 14 15 14 14 13 14 15 12 9 8 8 10 13 15 16 14 14 13 13 13 14 13 12 11 9 7 7 6 5 8 7 4 5 10 14 14 12 6 5 7 2 2 3 4 3 3 2 3 1 4 2 7 14 9 4 8 16 21 20 19 18 17 18 19 20 21
19 18 18 19 21 22 23 23 24 25 24 23 23 22 21 20 18 17 15 14 13 13 14 14 13 13 12 11 14 15 10 6 7 12 14 16 16 14 13 12 12 12 13 13 13 12 10 7 6 5 8 10 5 5 8 10 12 8 4 4 3 6 4 3 1 3 3 3 2 3 1 6 6 15 16 6 5 8 14 21 21 20 20 19 19 20 21 21
18 17 17 19 20 22 23 23 23 24 23 22 21 21 20 19 17 16 15 13 13 13 13 14 13 13 13 9 10 15 14 7 7 13 16 17 16 14 12 11 12 12 12 12 12 13 10 6 6 6 8 8 8 11 8 4 5 3 2 2 3 2 3 5 1 4 4 1 2 4 2 6 7 12 13 10 11 10 13 18 21 22 21 21 21 21 22 22
17 17 17 18 20 23 23 23 23 23 23 21 21 20 19 18 17 16 15 13 13 12 13 13 12 12 10 7 7 13 16 10 9 14 16 16 16 14 13 12 12 12 11 10 11 12 10 8 8 7 8 9 12 11 4 3 3 3 3 1 3 3 4 7 2 6 5 2 1 4 1 6 8 8 5 5 8 12 14 15 17 20 21 22 22 23 24 22
18 17 18 18 19 23 24 24 23 22 22 21 20 20 19 18 16 15 14 13 12 12 12 12 13 11 6 5 7 10 14 12 11 16 17 16 15 14 13 12 12 12 11 10 11 13 12 10 8 8 8 9 8 6 4 4 3 4 3 2 2 2 2 4 2 5 4 2 0 2 2 3 4 4 2 2 4 10 13 15 16 18 20 22 23 24 25 24
19 18 18 18 19 23 25 24 23 22 22 22 20 19 19 18 16 15 14 13 11 11 11 11 13 11 4 5 8 9 14 14 13 17 17 16 15 14 14 13 12 13 12 12 12 13 13 9 8 6 4 4 3 5 5 1 3 2 2 1 3 3 3 2 3 3 2 2 1 1 2 6 6 7 4 0 2 7 12 15 16 17 20 22 23 24 25 25
19 20 19 18 20 23 26 24 23 23 22 22 21 19 19 17 15 15 14 14 13 11 9 10 13 7 5 8 9 9 15 16 16 18 17 17 15 15 15 12 13 15 14 13 10 10 9 6 6 3 3 3 2 5 4 4 5 5 2 2 2 2 3 3 3 3 2 2 2 1 2 10 11 12 15 14 11 12 16 18 20 21 24 25 25 27 27 27
20 21 21 19 20 23 25 25 25 24 24 23 22 21 20 17 16 14 15 17 15 9 4 11 16 5 3 11 13 11 15 17 18 19 18 17 17 16 14 13 15 16 14 8 5 7 7 5 5 3 1 3 5 5 6 7 8 8 6 5 4 3 3 4 3 4 1 3 3 5 5 9 10 10 16 21 17 14 18 22 25 27 28 29 29 30 30 30
20 22 23 20 20 24 25 27 27 25 26 25 25 23 19 17 12 7 14 18 15 7 1 11 21 5 4 12 19 14 15 17 19 21 19 18 19 16 13 14 13 11 8 5 4 4 6 4 3 5 7 7 7 7 5 4 6 7 6 5 3 4 2 3 2 4 2 3 5 5 5 8 10 10 15 23 18 11 17 22 26 30 30 32 31 32 33 33
20 22 23 21 21 24 26 28 28 28 28 27 29 24 17 19 11 5 13 13 12 8 3 9 22 8 2 10 19 16 15 16 18 22 20 19 19 14 12 11 8 5 2 4 6 3 4 5 6 8 9 8 7 6 6 6 5 5 6 5 3 2 2 2 2 4 2 1 4 3 4 9 11 10 16 21 14 13 21 23 27 32 33 33 33 33 34 33
19 21 22 21 21 24 27 29 29 30 31 29 32 24 18 23 14 12 16 8 11 10 2 10 20 10 2 8 16 16 14 12 14 21 21 20 19 12 9 8 5 4 2 4 6 4 3 3 9 9 7 6 4 5 7 6 5 5 4 5 3 1 1 3 3 4 4 1 3 5 5 9 11 10 15 20 17 21 27 25 28 32 32 34 35 35 35 33
19 21 21 21 22 25 28 31 31 33 32 32 32 22 20 23 14 14 17 7 9 13 6 11 16 12 6 8 15 15 13 9 11 21 21 20 18 11 10 7 4 4 3 4 6 5 3 5 8 7 7 8 5 4 7 6 5 4 4 5 2 2 1 1 3 4 3 2 1 4 6 9 8 6 11 20 22 24 25 23 27 31 32 36 36 34 34 33
22 23 21 21 24 27 30 31 32 33 33 32 30 22 21 23 15 16 15 5 4 11 11 11 13 16 11 9 14 14 11 9 11 21 24 22 18 10 9 8 5 4 3 5 8 7 5 5 3 7 6 8 7 4 7 6 3 2 3 5 3 3 4 3 1 1 3 4 3 4 6 7 5 4 7 10 10 14 16 15 21 26 30 35 35 32 31 30
24 24 22 23 25 27 29 30 33 34 33 32 28 22 22 22 18 19 12 4 1 6 10 12 10 14 14 10 13 14 10 8 10 20 25 23 18 10 6 7 6 4 4 6 7 5 5 4 5 8 5 6 8 4 5 7 3 1 2 5 6 7 6 2 2 3 4 4 3 4 4 6 5 5 7 6 5 9 9 9 17 22 22 27 30 30 26 23
24 23 22 24 25 27 27 27 32 34 32 32 26 22 24 22 20 19 9 4 1 3 6 12 9 11 15 12 15 13 6 5 9 19 25 23 18 11 6 5 3 3 6 6 4 3 2 1 5 7 6 6 6 3 4 6 6 1 3 5 7 8 7 4 3 3 1 2 3 4 3 5 7 5 8 8 8 11 11 10 19 26 25 25 26 24 20 17
19 19 21 25 27 28 25 22 30 33 29 28 24 22 24 23 20 17 7 6 3 4 7 9 8 11 13 14 19 13 3 6 9 15 24 21 16 11 6 4 2 3 5 5 2 2 1 3 6 6 7 6 5 3 4 6 7 2 3 6 8 8 7 5 5 3 1 3 4 4 4 3 6 6 7 5 6 10 11 11 16 24 30 29 23 20 17 14
14 15 20 27 27 27 24 22 30 33 27 25 22 21 23 22 20 13 5 2 2 5 7 8 9 11 13 17 22 12 6 12 9 9 21 20 14 9 4 6 6 4 3 5 4 3 1 4 4 6 6 3 4 4 4 7 6 3 4 7 6 7 7 5 6 3 2 2 5 5 2 2 6 7 5 3 4 8 11 12 13 19 27 25 21 20 16 12
12 12 18 24 25 24 21 21 29 30 25 24 21 19 22 22 17 8 3 1 3 4 4 9 12 11 13 16 16 9 9 9 4 9 19 17 13 6 2 6 8 6 4 4 6 3 1 2 5 7 6 4 4 3 4 5 4 4 6 7 5 6 6 5 5 3 3 2 4 6 4 3 6 7 5 2 2 7 9 9 10 15 19 17 15 13 10 9
13 13 17 21 23 23 18 19 28 27 23 24 21 19 22 20 12 5 2 4 3 2 3 9 10 11 14 12 5 4 6 3 5 14 14 10 10 6 5 7 7 7 5 6 4 2 2 1 1 3 3 6 5 2 1 3 7 10 7 7 6 6 5 4 3 4 2 3 6 8 5 2 4 7 4 3 4 6 6 7 8 11 14 9 6 5 5 6
15 15 20 22 25 25 19 19 27 25 22 24 22 21 20 11 4 4 5 4 3 2 3 4 5 9 15 12 4 3 3 3 6 14 8 4 6 5 6 6 4 5 3 4 3 4 5 3 2 2 1 5 7 6 5 4 6 8 5 5 4 4 4 4 4 4 1 5 6 5 2 3 4 6 5 6 7 7 6 6 6 11 14 6 0 1 3 4
15 16 20 23 24 23 19 19 24 24 21 22 23 21 14 5 1 5 4 3 3 3 4 5 4 7 12 9 5 4 3 2 3 7 6 4 4 4 4 5 4 4 2 2 1 3 3 2 4 3 1 4 6 6 4 6 5 6 5 6 4 2 3 3 3 0 3 6 4 4 1 2 6 7 7 9 10 9 8 9 10 12 12 3 5 4 3 5
16 16 19 21 21 20 17 16 21 24 20 22 23 14 7 3 6 7 4 2 2 2 5 6 3 6 10 9 6 5 3 2 3 3 3 4 4 5 4 3 5 5 3 4 3 2 0 5 4 2 2 4 5 6 3 1 1 4 5 6 4 2 2 2 3 2 4 5 3 3 1 3 4 4 9 12 11 10 8 11 13 10 4 1 4 3 5 7
17 16 17 17 17 18 16 14 19 23 21 24 20 8 4 6 8 6 6 5 1 2 3 5 7 8 8 6 5 6 3 1 4 5 3 4 5 6 6 4 4 5 4 4 3 5 3 3 4 3 2 5 5 4 7 6 4 3 4 6 5 5 5 4 4 4 4 3 3 3 1 3 3 3 7 11 13 15 15 15 12 10 7 4 5 7 9 10
19 16 16 15 17 19 16 15 19 22 24 24 13 4 7 9 6 5 6 5 1 3 3 5 10 9 4 1 2 5 3 1 4 5 4 6 6 7 6 6 6 4 6 5 2 3 4 4 5 3 1 7 6 3 5 7 2 2 3 5 3 5 5 2 3 5 3 2 3 2 3 5 4 6 9 10 13 15 15 12 9 10 10 8 9 11 13 12
19 21 17 15 19 20 16 16 18 22 26 20 8 6 9 5 2 4 5 4 4 6 7 5 5 6 5 2 2 6 1 2 5 4 4 4 3 6 6 5 7 6 6 6 3 2 3 3 5 4 2 2 3 3 3 4 3 2 3 3 5 4 6 4 2 1 3 2 4 2 5 5 4 6 9 7 8 11 11 9 8 9 9 9 14 17 17 15
14 20 20 18 19 18 17 16 16 23 26 15 6 8 5 1 2 4 4 5 8 11 10 5 2 5 6 3 4 7 2 2 4 3 4 3 2 6 6 4 7 10 8 6 3 4 5 1 4 1 1 3 2 3 3 4 4 5 3 6 4 2 4 4 1 3 4 3 5 1 5 6 2 5 6 6 3 8 9 9 11 11 10 12 17 22 22 20
11 15 16 18 19 19 18 14 14 21 19 8 8 7 2 2 3 2 2 6 10 9 7 5 3 4 6 5 5 7 4 4 5 3 4 3 4 6 8 4 6 12 13 7 2 3 5 2 4 1 3 4 4 3 1 5 4 5 4 4 4 2 1 2 2 2 1 2 5 4 5 5 4 6 3 3 3 8 9 9 9 10 13 18 23 27 26 22
10 9 7 11 15 15 16 15 16 17 11 6 10 7 1 3 1 5 3 4 8 7 5 5 3 2 6 7 6 7 6 6 7 5 4 4 5 6 10 8 5 12 17 11 4 3 4 3 3 2 2 2 3 2 4 0 3 4 3 3 3 2 4 3 3 3 4 3 4 4 5 4 6 6 7 7 7 7 7 7 6 11 20 26 28 27 24 20
9 6 2 7 11 11 13 17 18 14 7 5 7 4 1 1 1 6 6 2 4 3 3 5 3 4 5 5 5 7 6 5 8 7 4 6 5 4 9 10 5 10 16 11 5 3 3 3 4 2 3 1 2 3 7 8 5 3 3 4 2 1 2 2 1 2 4 4 3 3 5 7 6 4 8 10 9 9 9 8 8 15 23 25 24 22 21 17
12 4 3 7 11 13 16 15 10 6 3 2 1 1 0 1 2 5 6 3 1 2 2 4 5 6 6 5 5 6 5 4 7 6 4 6 7 5 9 14 9 9 9 5 4 4 2 3 4 2 1 3 4 3 5 10 7 6 6 7 7 5 4 3 3 1 2 3 4 3 6 9 5 5 7 8 8 9 10 9 10 14 16 17 16 15 16 12
14 3 3 9 13 18 16 8 1 1 1 1 1 1 0 1 2 3 5 4 3 3 1 3 3 4 5 5 5 6 6 5 6 6 4 7 9 6 10 17 18 18 13 7 6 5 4 4 5 3 4 6 5 4 2 5 3 2 3 5 5 4 5 6 5 4 1 2 3 4 4 8 3 5 5 6 7 7 7 9 11 11 13 15 15 14 12 8
14 6 4 10 17 21 15 3 2 1 1 0 0 1 1 1 2 2 4 4 3 2 2 1 2 2 3 4 5 7 8 6 6 8 6 6 8 8 11 18 21 18 12 6 5 4 4 4 4 1 3 3 5 5 3 1 0 1 2 3 5 4 4 5 5 4 3 3 3 3 5 8 2 1 4 4 5 4 3 4 7 10 12 13 13 13 10 5
11 7 6 13 22 22 12 2 2 4 1 1 1 1 1 1 1 1 2 2 1 2 1 1 2 1 1 2 5 9 9 6 6 9 6 3 6 8 12 21 21 14 10 9 9 9 6 3 4 3 1 3 4 4 3 2 1 3 3 3 5 5 6 4 2 3 2 6 8 5 8 8 3 3 2 2 4 6 5 3 5 9 11 12 14 15 14 12
8 5 6 14 24 23 13 5 5 4 2 4 2 1 1 1 2 3 2 1 1 2 2 0 2 2 1 1 3 7 10 7 4 6 5 2 2 4 12 22 22 16 14 16 17 16 9 4 5 7 6 6 6 5 5 3 3 2 3 6 7 8 9 6 3 3 6 8 8 7 11 9 2 3 2 3 5 5 7 6 6 8 10 14 15 16 19 20
6 3 3 6 13 17 13 10 11 6 3 5 2 2 5 2 1 4 5 3 2 1 2 2 1 1 1 2 4 4 9 8 3 4 6 6 3 2 8 19 24 20 16 16 20 16 4 2 7 10 11 12 10 7 5 7 7 6 6 9 9 9 11 8 4 6 10 6 4 8 13 12 10 6 5 6 4 4 7 9 10 11 12 15 18 19 22 23
4 2 4 3 4 7 6 8 12 7 5 8 4 2 7 6 1 2 5 5 5 5 2 2 1 2 1 3 4 4 8 7 3 4 6 7 3 2 2 10 18 20 14 13 21 14 4 3 10 11 13 13 9 7 8 11 12 12 11 11 11 11 12 11 10 13 11 4 7 13 11 11 18 15 11 11 9 6 9 13 16 20 21 22 24 25 26 25
5 1 6 7 4 4 5 8 11 8 7 10 6 3 7 8 5 4 5 2 2 6 5 2 2 5 3 4 3 2 5 6 5 4 4 4 2 1 1 1 7 13 9 10 15 10 4 6 9 8 13 13 6 6 9 12 12 12 13 14 14 14 14 15 18 19 14 9 12 17 12 12 20 20 12 12 13 13 16 21 23 24 24 23 23 23 23 23
6 2 6 8 3 2 5 11 13 9 8 10 6 5 8 9 9 7 4 3 1 5 7 5 4 6 5 4 4 2 4 5 6 6 3 4 4 2 2 0 3 7 7 6 7 5 3 6 7 8 11 13 8 8 9 11 9 8 12 14 15 17 19 20 21 20 17 14 14 18 15 15 20 17 9 11 16 17 17 18 17 17 18 19 19 20 21 22
6 3 4 5 3 1 3 11 13 8 7 9 6 5 8 10 11 8 4 5 4 3 7 10 9 7 6 5 4 3 5 4 3 4 4 5 4 3 4 4 2 3 5 4 3 4 4 4 4 7 6 9 10 9 9 11 10 8 10 12 15 17 17 18 18 15 13 13 15 18 17 17 17 11 10 16 15 11 13 15 16 17 19 20 23 25 24 25
9 6 3 1 2 2 2 5 8 6 5 7 7 6 8 11 12 9 4 6 8 6 8 12 10 5 5 5 6 9 10 3 5 2 3 5 4 2 2 3 4 4 5 4 2 3 5 3 1 5 4 8 8 8 8 7 5 6 11 15 17 15 13 13 12 12 12 13 15 14 14 17 13 5 9 16 11 11 17 20 19 22 25 27 30 29 27 27
16 9 5 1 1 2 3 2 4 6 6 8 10 9 8 9 11 10 4 7 11 14 14 12 8 4 3 5 10 15 13 5 3 2 4 4 3 5 6 4 4 4 6 6 2 2 5 5 2 4 6 8 5 7 9 6 2 7 13 15 16 13 11 9 9 13 15 14 12 12 14 17 10 5 7 12 7 11 18 19 20 25 26 27 29 27 26 27
Wind_Direction
197 192 189 185 182 176 170 170 173 179 183 185 184 184 186 183 180 176 175 177 179 184 189 192 196 201 203 202 203 203 204 208 213 214 212 203 194 193 194 194 193 191 186 179 174 170 173 163 159 169 169 165 160 180 180 181 173 145 120 93 168 188 188 188 191 202 168 160 184 181 173 156 148 151 145 142 151 149 151 166 162 169 163 165 191 171 171 169
200 192 186 183 183 177 169 169 171 176 181 184 184 185 185 183 181 177 176 178 180 185 188 192 195 200 201 199 200 201 206 211 219 218 207 198 191 190 193 196 197 188 182 179 175 169 163 155 153 158 164 165 165 180 178 188 174 123 102 97 214 212 190 200 204 205 180 162 171 175 179 175 171 161 149 143 151 147 140 150 161 171 166 164 169 163 175 178
205 193 184 180 181 179 172 170 171 176 180 183 185 186 185 184 182 179 179 180 182 185 188 192 195 198 198 195 195 199 206 214 226 219 201 195 192 186 186 191 191 183 181 181 176 167 158 156 156 156 165 172 173 179 172 176 180 148 98 107 233 216 191 344 78 214 227 173 162 168 181 187 182 168 161 161 160 163 167 169 173 184 181 176 173 170 179 185
207 194 188 182 180 181 177 173 172 175 178 182 185 186 187 184 183 181 181 183 183 186 188 191 194 194 195 192 188 194 200 217 230 215 197 194 191 188 184 183 184 181 182 183 178 171 160 155 166 169 170 183 180 183 186 178 183 157 118 163 221 192 163 4 40 340 212 170 164 165 170 194 188 175 175 161 146 228 213 195 199 204 195 185 181 179 182 188
209 197 194 188 181 183 183 177 174 175 176 181 184 187 188 185 183 184 184 185 186 187 188 190 191 192 192 189 184 184 176 179 224 208 195 192 192 192 185 179 183 183 184 186 185 178 168 156 168 176 175 189 163 166 202 177 152 109 116 206 188 160 153 282 37 63 162 163 162 159 160 188 180 179 187 170 165 225 218 210 216 217 207 199 194 190 188 191
212 203 197 191 185 185 186 182 177 175 176 179 183 187 188 186 184 185 186 187 187 188 188 188 189 191 190 187 182 176 173 156 207 197 192 191 192 189 181 180 182 183 187 190 191 188 182 169 163 173 171 164 167 165 182 175 156 117 251 285 125 172 157 135 89 109 162 157 153 161 172 172 161 185 200 192 204 220 223 222 224 225 220 214 206 199 196 196
212 206 199 194 189 187 186 186 182 176 177 179 183 187 188 187 185 185 188 187 188 188 188 188 188 190 188 186 180 179 195 209 156 185 189 187 189 183 178 182 180 182 187 188 195 193 189 180 168 168 150 112 178 185 161 164 154 119 191 233 108 136 132 128 115 117 156 152 150 165 171 171 166 183 205 213 223 224 223 214 214 222 224 219 211 207 207 205
212 206 201 196 193 190 185 188 187 181 179 180 182 187 189 189 187 187 188 187 188 188 188 187 187 190 186 186 181 183 208 212 135 176 185 181 183 181 182 182 178 179 181 184 190 186 184 183 176 169 149 150 185 180 150 135 89 96 158 195 130 114 124 131 125 119 137 140 144 157 163 182 183 184 233 232 226 216 211 200 190 204 217 221 218 216 214 210
213 207 203 199 196 192 186 187 190 188 183 181 182 187 190 190 190 188 188 188 187 187 189 187 187 189 186 186 182 184 209 208 196 173 181 181 180 183 186 183 180 180 179 183 183 180 183 181 182 184 193 199 170 159 155 141 265 164 147 162 142 115 125 136 142 122 127 133 140 158 164 187 183 242 266 245 234 220 216 212 204 202 211 216 218 220 218 215
213 209 205 201 198 193 189 187 190 193 188 184 183 187 190 191 191 190 189 189 187 188 188 187 188 187 187 185 177 182 206 206 216 196 181 184 183 185 187 185 187 184 182 185 182 179 179 175 181 184 177 166 151 133 151 154 175 151 131 126 120 121 127 139 159 132 124 128 141 169 184 217 177 165 255 247 235 219 216 213 215 218 219 215 214 217 218 217
216 212 205 201 199 194 192 189 190 194 194 188 184 185 189 190 192 192 191 190 188 188 187 188 188 187 190 186 181 189 199 203 215 201 187 187 187 189 189 192 194 191 192 192 188 182 176 165 162 173 180 159 146 105 109 139 141 138 125 99 58 69 115 146 150 146 137 115 122 148 129 296 117 169 246 248 235 219 216 213 216 221 225 223 219 217 217 217
216 211 205 202 200 197 194 193 192 194 197 193 187 185 187 189 192 193 193 191 190 188 188 188 186 188 188 189 197 198 190 198 204 194 192 190 188 190 192 197 200 198 200 202 199 191 181 169 160 175 172 151 143 94 119 141 135 132 120 92 0 8 16 233 155 157 158 119 142 115 42 290 228 227 242 241 241 232 216 214 216 221 228 230 226 223 222 223
216 209 206 204 202 200 197 197 195 195 197 197 192 187 186 188 191 193 193 192 191 189 189 187 186 189 184 190 207 203 194 200 196 191 193 192 188 188 192 197 201 201 202 207 207 195 186 180 175 176 155 147 139 117 133 138 133 131 98 97 39 14 347 262 185 166 153 124 177 126 251 275 256 237 233 229 267 244 212 212 215 221 229 232 230 229 230 231
217 213 209 207 206 203 200 199 198 196 195 197 195 190 188 188 190 192 192 192 191 189 188 187 185 187 188 195 210 206 206 210 197 192 192 191 187 183 188 194 195 196 200 205 205 197 188 176 172 161 144 143 132 122 113 93 113 120 74 68 72 103 272 289 255 160 141 163 224 115 179 261 278 259 244 256 261 233 216 214 216 222 227 231 233 235 238 238
218 217 213 210 208 205 202 200 198 196 194 195 194 191 188 188 190 190 190 191 189 188 186 186 184 182 192 208 211 207 209 213 200 190 190 189 184 180 183 186 186 188 195 198 193 190 179 166 165 142 122 132 129 117 69 22 37 47 102 316 345 148 253 305 249 173 156 196 213 106 182 261 280 285 281 273 233 208 223 227 221 227 229 233 237 239 243 244
219 220 215 212 209 205 204 200 197 194 191 193 194 190 187 187 188 188 188 188 186 185 183 183 183 178 182 207 205 202 203 206 195 186 188 185 181 179 175 174 175 178 182 179 175 172 167 159 146 123 118 130 124 103 64 41 355 2 101 194 265 150 248 312 266 212 180 157 51 106 215 258 283 283 47 65 196 204 228 237 232 235 237 239 242 245 247 248
218 221 218 214 211 205 202 198 194 191 189 190 191 188 184 183 183 184 183 182 179 176 176 178 178 181 205 210 198 195 193 193 188 184 183 179 178 176 169 164 164 164 159 155 158 160 160 153 135 129 111 106 103 96 90 44 268 286 49 149 217 169 174 267 282 262 140 135 262 57 219 251 267 274 274 302 231 233 240 246 247 246 248 249 249 250 251 251
218 224 223 218 213 203 198 195 190 188 188 185 186 185 180 177 177 179 178 173 166 157 166 173 166 174 239 214 194 192 190 185 182 180 176 174 173 169 166 162 158 155 146 143 150 151 151 137 123 123 40 65 120 106 120 209 193 188 179 152 210 183 186 232 249 250 90 95 237 134 236 259 267 277 272 264 265 261 255 257 260 260 260 258 255 255 256 254
221 229 228 222 213 202 194 190 186 186 184 181 181 179 172 165 163 168 171 167 160 148 166 181 170 157 273 199 188 187 187 182 179 177 173 171 168 166 165 159 157 154 144 136 143 146 135 103 95 117 138 168 189 156 167 202 172 167 173 146 159 163 220 242 250 268 129 115 235 216 224 260 270 280 276 270 271 264 259 262 263 264 263 260 257 257 258 256
225 232 229 221 210 200 191 185 183 182 181 178 176 171 162 152 140 148 169 168 167 156 28 186 183 193 4 177 181 180 178 178 178 176 173 172 167 163 161 156 155 149 144 143 148 147 123 118 150 184 193 190 194 178 155 160 141 135 126 109 142 151 212 252 276 308 78 138 255 246 239 263 266 269 271 273 278 265 257 260 261 262 261 259 257 257 258 256
226 231 225 217 205 197 189 183 180 180 178 177 174 170 165 159 146 155 170 170 178 168 26 184 187 208 354 170 178 173 167 170 179 178 175 175 168 161 163 157 142 133 158 136 123 112 101 139 204 215 203 185 181 167 124 105 95 96 120 116 91 126 206 249 255 301 28 133 271 329 299 266 260 263 268 271 274 258 249 248 253 258 258 258 258 257 259 259
229 230 220 210 201 194 189 182 179 179 177 176 175 174 173 172 170 177 171 169 187 177 83 177 188 210 239 175 177 170 162 161 178 182 176 174 171 169 171 154 127 147 157 108 105 79 78 185 228 223 189 140 117 130 115 101 89 81 111 119 96 145 219 298 299 311 19 109 272 347 331 273 260 254 261 260 254 255 254 249 252 258 258 259 259 260 262 263
231 230 217 206 196 191 189 182 179 178 177 177 177 177 177 175 171 175 171 154 181 184 166 175 193 208 192 172 179 175 167 158 176 184 178 175 176 174 167 148 122 143 135 138 137 123 137 238 237 198 146 115 98 120 112 90 79 86 105 125 177 228 153 282 300 312 8 57 281 334 311 281 275 268 263 257 252 259 264 260 257 256 256 259 261 263 266 267
229 228 214 200 193 190 185 180 178 177 178 178 177 180 180 175 167 167 165 113 151 188 188 181 195 206 195 172 182 184 179 173 179 183 180 178 175 167 169 156 121 133 158 158 145 149 198 255 196 132 113 113 114 121 128 118 71 35 125 139 169 196 165 175 281 323 2 14 27 10 321 291 305 323 285 269 264 267 268 269 265 256 252 255 259 262 263 267
227 221 205 193 190 186 180 178 178 176 178 177 176 180 179 177 170 163 155 78 89 188 194 191 197 209 203 184 184 182 178 185 187 184 182 182 175 161 168 163 138 167 184 142 130 161 232 267 137 121 80 93 115 129 161 144 105 338 207 167 163 159 152 140 38 48 39 353 336 28 357 290 310 317 278 290 315 284 280 292 280 269 258 251 253 255 258 269
220 207 194 187 184 179 177 178 178 177 178 177 175 178 179 177 169 162 143 48 280 195 176 187 191 198 198 189 177 165 165 204 192 186 184 183 181 167 156 159 132 173 173 140 129 176 238 2 105 125 110 93 99 125 185 137 109 195 223 161 144 125 115 118 89 67 86 256 297 55 102 267 300 282 256 279 296 287 295 294 274 268 262 255 252 254 261 271
201 191 184 180 177 175 174 177 179 178 178 176 175 175 178 175 165 161 128 32 264 181 149 177 181 181 190 182 169 156 149 180 165 182 184 182 184 173 168 180 120 156 165 132 136 229 181 85 70 89 95 92 106 146 198 130 112 206 210 130 128 113 118 134 107 95 204 242 321 20 119 236 290 258 252 292 303 295 292 282 272 263 258 258 263 269 273 268
170 175 178 174 171 171 171 176 181 179 176 175 171 170 175 173 163 155 116 51 205 150 144 176 170 172 179 173 172 164 140 153 145 180 183 178 181 173 175 197 161 149 141 125 178 254 119 146 148 115 90 108 167 210 199 119 97 239 190 128 131 123 128 123 99 95 10 14 316 315 130 200 273 272 293 327 295 287 279 270 272 269 264 266 272 274 274 262
163 167 173 171 164 164 171 179 180 179 177 171 163 163 167 164 157 134 87 174 163 115 143 165 162 172 168 163 174 165 138 149 139 166 172 173 182 170 134 189 158 114 53 89 165 234 23 179 189 136 125 173 194 248 211 134 100 175 143 100 77 74 83 77 90 104 39 19 259 245 184 196 267 283 310 340 246 258 266 267 265 277 285 287 286 278 265 251
180 173 166 167 165 165 169 175 178 178 175 168 159 155 153 149 144 125 177 210 156 100 135 157 168 169 155 149 166 160 137 129 121 142 156 167 174 158 123 157 138 98 35 35 98 255 317 350 25 97 136 169 147 81 68 133 132 135 108 65 48 30 40 45 53 84 65 292 257 236 202 182 272 281 261 214 218 222 246 281 285 306 317 313 298 276 234 222
193 180 165 167 172 170 164 170 178 176 172 169 159 148 144 134 112 144 195 196 123 102 113 152 179 159 156 157 157 158 103 57 135 143 147 147 156 150 126 139 113 90 50 32 48 325 354 44 352 344 120 131 110 65 36 50 104 112 84 74 64 349 13 23 1 46 108 254 265 267 236 157 229 261 255 249 258 238 232 260 279 316 320 315 39 178 181 186
191 175 166 171 177 173 163 168 176 173 171 171 161 152 143 118 190 199 197 155 147 187 171 178 203 167 162 152 135 155 114 86 163 149 146 143 153 176 162 168 156 119 168 181 116 348 27 6 307 322 260 159 109 75 35 12 42 81 89 97 88 342 8 352 319 41 226 245 273 305 291 212 232 245 256 265 265 245 221 235 266 301 309 307 109 118 172 196
176 162 162 171 176 175 166 164 171 170 169 168 164 153 118 122 208 208 203 194 190 191 155 152 148 144 151 143 146 164 117 131 190 153 146 137 148 204 231 201 148 126 183 184 124 117 17 312 308 16 283 223 144 119 133 303 88 132 135 129 130 126 120 269 272 275 266 261 293 321 297 266 277 261 241 243 254 260 265 278 279 279 283 136 136 186 222 229
174 157 153 158 164 174 175 165 167 169 166 164 161 141 119 182 207 187 182 213 218 61 109 124 112 123 145 151 179 175 110 133 182 140 138 132 143 204 231 224 159 102 113 148 146 166 174 280 238 177 213 200 179 164 159 149 149 175 155 133 145 154 159 207 220 217 249 280 297 305 289 206 218 281 255 248 269 282 289 296 279 246 237 233 215 228 243 246
184 174 160 156 155 162 168 168 169 168 167 163 152 147 186 200 213 180 177 193 157 57 61 108 120 132 155 106 209 197 146 170 180 137 156 169 171 193 194 203 195 132 128 161 196 166 159 244 251 287 235 169 173 202 141 112 111 227 125 108 160 183 150 138 190 179 179 302 300 253 238 213 211 279 278 268 278 281 281 286 268 245 247 247 256 270 267 260
182 187 186 182 164 151 148 162 168 169 169 162 150 197 203 203 215 191 177 155 142 124 100 92 108 137 169 147 201 224 204 123 159 149 186 193 192 195 189 200 193 172 158 158 174 167 142 260 288 343 342 167 150 174 137 119 175 177 132 178 216 177 121 111 236 59 82 261 274 227 251 286 323 291 285 288 282 280 288 291 277 267 267 277 290 288 279 279
163 182 196 202 186 165 153 152 160 171 172 164 184 207 192 165 192 173 153 128 135 137 127 136 159 148 167 165 187 206 198 112 154 165 193 198 228 195 190 222 194 183 183 154 163 200 150 205 299 37 192 277 15 104 68 49 119 130 171 209 197 112 85 106 203 349 41 255 272 270 250 280 316 272 307 360 304 261 271 283 287 291 292 288 282 274 276 287
156 175 193 204 204 196 180 159 157 171 171 168 214 218 157 193 211 110 107 132 135 138 141 161 164 144 167 173 184 189 173 160 176 181 175 195 246 193 166 200 200 189 197 176 154 210 147 151 306 12 192 287 360 112 94 18 70 125 173 177 124 117 186 110 154 200 146 245 275 295 277 260 219 226 274 355 226 223 245 275 297 295 277 266 262 265 276 287
169 177 193 206 207 204 192 182 174 171 169 188 211 219 220 201 204 36 42 149 147 140 158 180 163 131 173 171 167 178 184 178 172 178 177 184 239 205 170 183 194 191 197 186 166 198 148 161 256 288 247 303 15 155 194 166 45 65 97 120 103 134 172 164 157 168 167 204 253 305 317 262 223 205 191 209 220 208 233 265 274 261 257 258 262 268 277 285
173 173 213 212 198 186 181 186 184 174 181 213 202 203 291 235 343 28 40 115 155 132 166 194 169 148 169 167 159 174 188 178 166 180 204 185 205 230 193 188 174 181 191 182 162 169 134 171 216 298 332 251 201 211 187 170 150 137 159 173 182 113 109 155 161 127 140 163 198 272 290 264 245 196 175 198 218 205 208 226 241 252 260 268 275 277 278 283
170 169 227 197 190 185 174 171 176 175 192 228 155 141 11 341 330 3 29 61 77 42 139 165 157 153 152 151 175 180 164 162 172 184 208 196 202 234 208 195 169 147 160 165 188 190 157 164 170 155 251 211 228 250 194 184 175 164 184 195 186 161 124 156 235 260 129 162 176 183 271 269 237 187 185 194 212 222 221 227 244 258 274 291 298 294 290 289
164 169 210 189 195 191 171 145 69 75 147 178 121 107 90 20 3 347 4 39 58 26 49 121 134 155 158 159 174 169 154 160 182 188 207 211 208 218 206 192 171 154 154 174 200 178 114 112 131 164 219 216 241 279 228 211 207 134 190 201 178 162 136 152 207 239 178 214 176 126 275 275 212 172 213 211 211 225 218 217 235 265 295 308 308 305 302 289
163 160 177 190 196 185 165 119 345 160 103 271 203 54 52 39 39 8 353 16 44 22 8 85 123 148 181 166 151 160 168 174 189 195 207 220 219 222 202 182 169 161 160 173 193 157 110 113 132 189 305 309 309 331 11 28 160 204 241 176 153 173 153 148 180 182 171 216 177 125 255 265 269 272 267 241 224 226 198 211 257 291 309 315 321 328 327 303
161 147 153 177 180 173 163 140 177 181 160 85 77 22 15 318 358 72 39 25 27 38 73 72 35 49 218 145 145 173 182 180 200 207 206 214 221 219 198 182 173 167 175 183 178 173 178 166 130 125 7 344 337 334 322 303 191 202 222 174 162 152 120 110 141 133 217 223 178 171 244 249 283 314 304 28 333 298 285 288 297 299 308 320 328 326 316 302
152 142 168 182 177 173 179 187 159 158 142 124 127 198 171 281 270 185 162 88 61 80 99 31 346 357 318 145 144 178 189 185 187 201 209 233 241 215 195 189 182 180 198 195 173 166 179 188 154 159 184 204 212 216 217 204 166 196 211 185 185 165 150 163 164 157 231 225 169 189 243 245 273 328 319 10 356 304 277 284 295 289 299 313 313 302 293 295
157 165 185 194 185 182 188 186 169 155 145 153 158 187 184 211 283 191 187 212 245 147 69 4 296 351 8 153 147 175 205 213 174 153 196 212 229 257 196 192 191 194 204 189 166 157 148 200 190 194 203 207 208 206 168 134 150 206 210 186 189 190 181 176 156 193 222 222 188 224 241 252 262 256 247 265 265 253 273 291 296 289 291 300 300 291 288 292
158 187 179 168 193 198 199 185 177 170 160 170 169 171 186 195 236 184 189 211 223 193 144 7 216 190 182 165 169 187 204 215 191 159 194 204 216 318 203 190 197 203 202 176 167 156 92 212 209 210 219 221 210 194 164 152 174 200 199 188 193 197 188 183 202 220 217 207 244 240 225 243 258 247 228 243 251 251 267 270 272 277 281 285 285 282 281 281
175 218 194 181 171 197 207 188 182 172 155 166 171 161 176 185 189 191 190 197 198 178 183 288 225 198 188 140 141 181 186 200 220 208 191 184 174 32 69 181 205 203 191 169 175 161 114 212 213 202 223 236 217 175 175 177 187 197 196 194 197 196 190 196 214 224 214 201 239 245 219 217 250 253 233 230 240 240 249 257 263 270 273 272 272 271 272 273
197 237 211 200 193 211 193 173 170 170 163 166 172 164 169 183 194 193 161 113 129 193 195 222 218 187 174 141 129 164 181 181 213 223 182 156 167 137 131 184 236 201 173 157 184 177 153 213 212 187 217 240 221 185 188 190 190 200 203 200 199 200 199 203 215 223 220 216 234 249 245 234 246 255 243 234 241 242 249 255 255 256 259 261 262 264 268 272
195 217 214 207 222 241 153 156 161 172 178 177 188 187 174 183 192 192 164 151 166 189 197 218 221 181 166 171 160 206 214 150 138 217 189 158 188 194 173 190 193 172 165 161 186 191 187 220 199 161 199 247 228 196 192 197 197 205 217 217 212 210 208 212 219 222 223 229 237 247 257 257 251 250 250 249 242 239 250 247 240 247 256 260 261 261 262 265
193 201 209 179 192 189 158 155 162 168 176 183 196 189 182 197 193 177 182 196 183 166 181 208 223 198 169 182 196 230 237 179 96 126 132 128 171 188 170 193 164 146 173 180 161 163 183 220 126 123 184 244 225 180 177 193 199 218 234 230 221 215 213 214 217 215 211 218 232 241 250 257 252 217 243 250 219 202 239 243 241 251 257 260 263 262 262 265
201 205 216 161 111 190 179 155 167 179 187 196 199 188 183 199 183 157 178 227 205 199 198 192 189 183 174 198 220 236 238 209 138 125 91 74 87 102 102 115 116 129 166 169 147 147 166 181 167 144 199 243 226 154 148 137 153 247 245 229 217 217 217 215 224 227 217 207 215 224 234 248 246 164 224 253 210 200 236 242 243 252 255 258 263 266 270 272